Flag for Hungary Weather past 2 weeks in Debrecen, Hungary

Now
52 °F

Sunny.


Feels Like: 52 °F
Forecast: 55 / 80 °F
Wind: 2 mph from South

Location: Debrecen Airport

Current Time: May 30, 2015 at 7:00:43 AM

Latest Report: May 30, 2015 at 6:15 AM


Visibility: 10 mi

Pressure: 29.98 "Hg

Humidity: 88%

Dew point: 48 °F

Location of DebrecenLocation

Historic Weather in Debrecen — Graph

°F

Debrecen temperature yesterday

Maximum temperature yesterday: 70 °F (at 3:45 PM)
Minimum temperature yesterday: 50 °F (at 4:45 AM)
Average temperature yesterday: 63 °F

Past Weeks' High & Low Weather Summary

 TemperatureHumidityPressure
High84 °F (May 19, 4:45 PM)100% (May 15, 5:15 AM)30.15 "Hg (May 15, 5:15 AM)
Low41 °F (May 15, 5:15 AM)30% (May 19, 11:45 AM)29.68 "Hg (May 26, 5:45 PM)
Average64 °F63%29.94 "Hg
* Reported May 15 4:45 AM — May 30 4:45 AM, Debrecen, Weather by CustomWeather, © 2015

Note: Actual official high and low records may vary slightly from our data, if they occured in-between our weather recording intervals... More about our weather records

Advertising

Debrecen weather history for previous 24 hours

 ConditionsComfort  
Time TempWeatherWind HumidityBarometerVisibility
4:45 AM
Sat, May 30
46 °FFog.1 mph100%29.98 "HgN/A
8:45 PM
Fri, May 29
63 °FSunny.No wind56%29.98 "Hg10 mi
8:15 PM66 °FSunny.2 mph43%29.95 "Hg10 mi
7:45 PM66 °FSunny.3 mph46%29.95 "Hg10 mi
7:15 PM68 °FSunny.5 mph43%29.95 "Hg10 mi
6:45 PM70 °FSunny.5 mph38%29.95 "Hg10 mi
6:15 PM70 °FSunny.5 mph38%29.95 "Hg10 mi
5:45 PM70 °FSunny.5 mph38%29.95 "Hg10 mi
5:15 PM70 °FSunny.7 mph38%29.95 "Hg10 mi
4:45 PM70 °FSunny.6 mph35%29.98 "Hg10 mi
4:15 PM70 °FSunny.5 mph35%29.98 "Hg10 mi
3:45 PM70 °FSunny.5 mph35%29.98 "Hg10 mi
3:15 PM68 °FSunny.7 mph40%29.98 "Hg10 mi
2:45 PM68 °FSunny.6 mph40%29.98 "Hg10 mi
2:15 PM68 °FSunny.7 mph40%29.98 "Hg10 mi
1:45 PM68 °FSunny.7 mph40%30.01 "Hg10 mi
1:15 PM66 °FSunny.6 mph43%30.01 "Hg10 mi
12:45 PM66 °FSunny.6 mph43%30.01 "Hg10 mi
12:15 PM66 °FScattered clouds.8 mph46%30.01 "HgN/A
11:45 AM64 °FScattered clouds.8 mph43%30.01 "HgN/A
11:15 AM64 °FPartly sunny.8 mph46%30.04 "HgN/A
10:45 AM63 °FPartly sunny.7 mph52%30.04 "HgN/A
10:15 AM63 °FScattered clouds.7 mph49%30.04 "HgN/A
9:45 AM61 °FPassing clouds.7 mph55%30.04 "HgN/A
9:15 AM61 °FPassing clouds.7 mph59%30.04 "HgN/A
8:45 AM59 °FSunny.6 mph63%30.04 "Hg10 mi
8:15 AM57 °FSunny.6 mph67%30.04 "Hg10 mi
7:45 AM55 °FSunny.3 mph72%30.01 "Hg10 mi
7:15 AM55 °FSunny.3 mph67%30.01 "Hg10 mi
Weather by CustomWeather, © 2015

See weather overviewHow to use our weather pages